TimeSAST,TemperatureF,Dew PointF,Humidity,Sea Level PressureIn,VisibilityMPH,Wind Direction,Wind SpeedMPH,Gust SpeedMPH,PrecipitationIn,Events,Conditions,WindDirDegrees,DateUTC
12:00 AM,53.6,50.0,88,30.36,6.2,NW,4.6,-,N/A,Rain,Light Rain,310,2012-09-05 22:00:00
1:00 AM,51.8,50.0,94,30.39,6.2,North,3.5,-,N/A,,Scattered Clouds,360,2012-09-05 23:00:00
2:00 AM,51,48,86,30.40,6,,3.5,,,,,,2012-09-06 00:00:00
2:00 AM,50.0,48.2,94,30.39,6.2,East,3.5,-,N/A,,Partly Cloudy,90,2012-09-06 00:00:00
3:00 AM,51.8,50.0,94,30.36,6.2,ENE,3.5,-,N/A,,Partly Cloudy,60,2012-09-06 01:00:00
4:00 AM,51.8,50.0,94,30.36,-9999.0,SE,3.5,-,N/A,,Clear,140,2012-09-06 02:00:00
5:00 AM,49,47,89,30.38,12,NE,5.8,,,,,50,2012-09-06 03:00:00
5:00 AM,48.2,46.4,93,30.36,-9999.0,NNE,5.8,-,N/A,,Clear,20,2012-09-06 03:00:00
6:00 AM,48.2,46.4,93,30.36,-9999.0,NW,4.6,-,N/A,,Clear,320,2012-09-06 04:00:00
7:00 AM,46.4,44.6,93,30.39,6.2,WNW,5.8,-,N/A,,Partly Cloudy,300,2012-09-06 05:00:00
8:00 AM,51,49,92,30.43,19,WNW,3.5,,,,,300,2012-09-06 06:00:00
8:00 AM,51.8,50.0,94,30.42,-9999.0,Variable,2.3,-,N/A,,Clear,0,2012-09-06 06:00:00
9:00 AM,59.0,51.8,77,30.42,-9999.0,Variable,3.5,-,N/A,,Clear,0,2012-09-06 07:00:00
10:00 AM,60.8,53.6,77,30.42,6.2,SSE,12.7,-,N/A,,Partly Cloudy,160,2012-09-06 08:00:00
11:00 AM,62,54,68,30.43,19,ESE,6.9,,,,Scattered Clouds,120,2012-09-06 09:00:00
11:00 AM,62.6,53.6,72,30.42,6.2,ESE,6.9,-,N/A,,Partly Cloudy,110,2012-09-06 09:00:00
12:00 PM,64.4,53.6,68,30.42,6.2,ESE,9.2,-,N/A,,Partly Cloudy,110,2012-09-06 10:00:00
1:00 PM,64.4,51.8,64,30.39,6.2,ESE,15.0,-,N/A,,Partly Cloudy,110,2012-09-06 11:00:00
2:00 PM,65,53,56,30.35,12,East,16.1,,,,Scattered Clouds,100,2012-09-06 12:00:00
2:00 PM,66.2,55.4,68,30.36,6.2,East,16.1,-,N/A,,Partly Cloudy,100,2012-09-06 12:00:00
3:00 PM,66.2,55.4,68,30.30,6.2,East,15.0,-,N/A,,Partly Cloudy,90,2012-09-06 13:00:00
4:00 PM,64.4,55.4,73,30.30,6.2,East,19.6,-,N/A,,Partly Cloudy,100,2012-09-06 14:00:00
5:00 PM,63,54,66,30.29,12,ESE,17.3,,,,Scattered Clouds,110,2012-09-06 15:00:00
5:00 PM,62.6,55.4,77,30.27,6.2,ESE,17.3,-,N/A,,Partly Cloudy,110,2012-09-06 15:00:00
6:00 PM,60.8,53.6,77,30.27,6.2,East,15.0,-,N/A,,Partly Cloudy,100,2012-09-06 16:00:00
7:00 PM,57.2,51.8,82,30.30,6.2,SE,6.9,-,N/A,,Partly Cloudy,130,2012-09-06 17:00:00
8:00 PM,56,51,80,30.30,12,NE,4.6,,,,,50,2012-09-06 18:00:00
8:00 PM,55.4,51.8,88,30.27,-9999.0,ENE,4.6,-,N/A,,Clear,60,2012-09-06 18:00:00
9:00 PM,55.4,50.0,82,30.27,-9999.0,NE,3.5,-,N/A,,Clear,50,2012-09-06 19:00:00
10:00 PM,51.8,48.2,88,30.27,-9999.0,WNW,5.8,-,N/A,,Clear,290,2012-09-06 20:00:00
11:00 PM,51.8,50.0,94,30.24,-9999.0,Variable,2.3,-,N/A,,Clear,0,2012-09-06 21:00:00